Location: Newark
(34.2872°N, 118.4389°W)
Time: 15:37:18
(UTC+00:00)

Envisat - Visible Passes

Search period start: 20 January 2020 00:00
Search period end: 30 January 2020 00:00
Orbit: 764 x 766 km, 98.1° (Epoch: 20 January)

Date Brightness Start Highest point End Pass type
(mag) Time Alt. Az. Time Alt. Az. Time Alt. Az.
20 Jan 3.8 02:10:23 10° S 02:15:21 56° W 02:20:21 10° NNW visible
20 Jan 3.5 14:22:53 10° NNE 14:27:57 68° ESE 14:32:59 10° S visible
21 Jan 3.0 01:33:38 10° SSE 01:38:37 61° ENE 01:43:38 10° N visible
21 Jan 6.2 03:15:55 10° WSW 03:17:58 12° W 03:20:01 10° WNW visible
21 Jan 5.3 13:46:45 10° NE 13:51:05 28° E 13:55:23 10° SSE visible
22 Jan 5.0 02:36:30 10° SSW 02:40:55 30° W 02:45:22 10° NW visible
22 Jan 6.4 13:12:28 10° ENE 13:14:00 11° E 13:15:32 10° ESE visible
23 Jan 3.3 01:59:00 10° S 02:04:04 73° W 02:09:08 10° NNW visible
23 Jan 4.0 14:11:41 10° NNE 14:16:39 52° E 14:21:34 10° S visible
24 Jan 6.0 03:03:27 10° SW 03:06:35 16° W 03:09:43 10° NW visible
24 Jan 5.7 13:35:50 10° NE 13:39:42 22° E 13:43:34 10° SE visible
25 Jan 4.5 02:24:52 10° SSW 02:29:35 39° W 02:34:20 10° NNW visible
26 Jan 3.0 01:47:42 10° SSE 01:52:46 86° ENE 01:57:52 10° NNW visible
26 Jan 4.6 14:00:34 10° NNE 14:05:19 40° E 14:10:04 10° SSE visible
27 Jan 5.6 02:51:24 10° SW 02:55:12 21° W 02:59:01 10° NW visible
27 Jan 6.1 13:25:07 10° NE 13:28:20 17° E 13:31:32 10° SE visible
28 Jan 4.0 02:13:21 10° S 02:18:15 51° W 02:23:12 10° NNW visible
28 Jan 3.3 14:25:46 10° NNE 14:30:51 75° ESE 14:35:55 10° S visible
29 Jan 6.4 03:19:34 10° WSW 03:20:55 11° W 03:22:15 10° WNW visible
29 Jan 5.1 13:49:31 10° NE 13:54:00 31° E 13:58:26 10° SSE visible
